Back to catalog

ARIANE 2 DEB

AliveGTO
NORAD 27593·DEBRIS·🇫🇷 France

Launched May 17, 1988 from Guiana Space Centre

Loading…

TLE

AgingSource: Space-Track

Epoch: Sep 14, 2026, 11:53 UTC

1 27593U 88040C   26257.49530404 -.00000052  00000-0  35681-3 0  9991
2 27593   7.7221 315.9818 7172162 164.8873 240.3991  2.29687412201827

Track ARIANE 2 DEB in real time with AllMySat

Download on the App Store